Terminal Aerodrome Forecast
Issued by NWS Grand Rapids, MI

Home | Current Version | Previous Version | Text Only | Print | Product List | Glossary On
Versions: 1 2 3 4 5 6 7 8 9 10 11 12 13 14 15 16 17 18
000
FTUS43 KGRR 081741
TAFGRR
TAF
KGRR 081741Z 0818/0918 28012G21KT 4SM -SHSN OVC020
      TEMPO 0818/0821 2SM -SN OVC015
     FM090600 30012KT 3SM -SN OVC025=

USA.gov is the U.S. government's official web portal to all federal, state and local government web resources and services.